Location: Ripley
(48.3812°N, 115.4473°W)
Time: 20:59:24
(UTC+00:00)

EO-79 - Pass Details

Date: 02 July 2022
Orbit: 588 x 603 km, 98.0° (Epoch: 11 August)

Event Time Altitude Azimuth Distance (km) Brightness Sun altitude
Rises 09:09:46 0° 18° (NNE) 2,857 ? -16.2°
Reaches altitude 10° 09:11:59 10° 23° (NNE) 1,952 ? -16.0°
Maximum altitude 09:16:08 51° 100° (E) 759 ? -15.8°
Enters shadow 09:18:34 23° 168° (SSE) 1,306 ? -15.6°
